User: anonymous   Login
Location: Evergreen Manor
(41.4083°N, 81.4939°W)
Time: 11:07:07
(UTC+00:00)
Language:

STARLINK 1040 - Orbit

View from above orbital plane
View from above orbital plane
View from above satellite
View from above satellite

Ground track
Ground track

The orbit data is extracted from the following two-line orbital elements,

1 44745U 19074AJ  20057.30083795 +.00024716 +00000-0 +13575-3 0  9998
2 44745 053.0010 357.6090 0004505 133.3480 226.7916 15.79635751016842
Epoch (UTC): 26 February 2020 07:13:12
Eccentricity: 0.0004505
inclination: 53.0010°
perigee height: 328 km
apogee height: 334 km
right ascension of ascending node: 357.6090°
argument of perigee: 133.3480°
revolutions per day: 15.79635751
mean anomaly at epoch: 226.7916°
orbit number at epoch: 1684

The dashed part of the orbit path shows where the satellite is in the earth's shadow,  

DLR